Other Surface Observations
Issued by NWS Tucson, AZ

Home | Current Version | Previous Version | Text Only | Print | Product List | Glossary On
Versions: 1 2 3 4 5 6 7 8 9 10 11 12 13 14 15 16 17 18 19 20 21 22 23 24 25 26 27 28 29 30 31 32 33 34 35 36 37 38 39 40 41 42 43 44 45 46 47 48 49 50
000
SXUS55 KTWC 212316
OSOTWC

WEATHER ROUNDUP FOR SOUTHEAST ARIZONA
NATIONAL WEATHER SERVICE TUCSON AZ
415 PM MST THU AUG 21 2014

AZZ504>506-514-220015-
LOCATION       SKY/WX    TMP DP  RH WIND       PRES   REMARKS
TUCSON         CLOUDY    80  58  46 W12       30.02S
DAVIS-MONTHAN  CLOUDY    79  63  57 W8        30.01S
CHILDRENS PARK N/A       85  60  43 N4                PIMA CO DEQ
ALVERNON/22ND  N/A      N/A N/A N/A N/A               PIMA CO DEQ
CHERRY/GLENN   N/A      N/A N/A N/A N/A               PIMA CO DEQ
TANGERINE      N/A       85 N/A N/A NW7               PIMA CO DEQ
CONTL RANCH    N/A       87  60  41 NW9               PIMA CO DEQ
GRANT/1ST      N/A       85  60  43 NW2               PIMA CO DEQ
CRAYCROFT/22ND N/A      N/A N/A N/A N/A               PIMA CO DEQ
GOLFLINKS/KOLB N/A      N/A N/A N/A N/A               PIMA CO DEQ
AJO/12TH       N/A       84  59  43 NE1               PIMA CO DEQ
SAGUARO EAST   N/A      N/A N/A N/A N/A               PIMA CO DEQ
FAIRGROUNDS    N/A       81 N/A N/A NW2               PIMA CO DEQ
SAGUARO        N/A       84  63  50 S3                *SABINO CYN
SAN CARLOS     N/A       85  61  44 S3                *SAN CARLOS
GREEN VALLEY   N/A       83  62  49 E4                PIMA CO DEQ
HORSE CAMP CYN N/A       77  59  54 W4G10             *ARAVAIPA CYN
RINCON MTNS    N/A       58  52  81 CALM              *NR MANNING CAMP
$$

AZZ509>511-220015-
LOCATION       SKY/WX    TMP DP  RH WIND       PRES   REMARKS
SAFFORD        CLOUDY    84  56  38 NW20G26   29.97F
STRAY HORSE    N/A       64  48  57 W11G20            *
TRAIL CABIN    N/A       72  53  51 W7G14             *N OF GRANVILLE
BLACK HILLS    N/A       81  58  46 NW12G22           *N OF FT THOMAS
DRY LAKE       N/A       66  53  64 W3G10             *NATANES MTNS
NOON CREEK     N/A       77  57  51 E3                *PINALENO MTNS
COLUMBINE      N/A       57  46  66 S4                *PINALENO MTNS
GUTHRIE        N/A       72  49  44 W16G27            *SW OF GUTHRIE
$$

AZZ502-503-513-220015-
LOCATION       SKY/WX    TMP DP  RH WIND       PRES   REMARKS
NOGALES        PTSUNNY   79  58  48 NE3       30.07F
SELLS          N/A       83  62  50 S5                *
SASABE         N/A       81  62  53 SW6G12            *ALTAR VLY
HOPKINS        N/A       63  59  86 W4G10             *SANTA RITA MTNS
CARR CYN       N/A       68  61  77 NE2               *W OF HEREFORD
$$

AZZ507-508-512-220015-
LOCATION       SKY/WX    TMP DP  RH WIND       PRES   REMARKS
SIERRA VISTA   PTSUNNY   70  63  78 W12       30.13F
DOUGLAS        PTSUNNY   76  59  55 NW22      30.07R
EMPIRE MTNS    N/A       72  65  78 NE3G11            *LAS CIENEGAS NCA
MULESHOE RANCH N/A       77  57  50 NW6G18            *PRESERVE
HEADQUARTERS   N/A       80  55  43 W8G13             *CHIRICAHUA MTNS
$$

.............................NOTES.............................
THIS IS AN AUTOMATED COLLECTIVE WITH MINIMAL QUALITY CONTROL.
PIMA CO DEQ SITES HAVE NONSTANDARD WIND SENSOR HEIGHTS.
PIMA CO DEQ SITES DO NOT REPORT WIND GUSTS.
* INDICATES WIND SENSORS LOCATED AT 20 FEET INSTEAD OF 33 FEET.
..............................KEY..............................
SKY/WX - SKY CONDITION/WEATHER
TMP    - TEMPERATURE IN FAHRENHEIT
DP     - DEWPOINT IN FAHRENHEIT
RH     - RELATIVE HUMIDITY IN PERCENT
WIND   - DIRECTION AND SPEED IN MILES PER HOUR (MPH)
VRB    - VARIABLE WIND DIRECTION
PRES   - MEAN SEA LEVEL PRESSURE IN INCHES OF MERCURY
         F - FALLING PRESSURE   R - RISING PRESSURE
         S - STEADY PRESSURE
VSB    - VISIBILITY IN MILES
HX     - HEAT INDEX IN FAHRENHEIT
WCI    - WIND CHILL INDEX IN FAHRENHEIT
N/A    - NOT AVAILABLE
AFB    - AIR FORCE BASE
         DAVIS-MONTHAN IS DAVIS-MONTHAN AIR FORCE BASE
CYN    - CANYON
MTNS   - MOUNTAINS
NCA    - NATIONAL CONSERVATION AREA
NR     - NEAR
VLY    - VALLEY
CONTL  - CONTINENTAL
PIMA CO DEQ - PIMA COUNTY DEPT OF ENVIRONMENTAL QUALITY



USA.gov is the U.S. government's official web portal to all federal, state and local government web resources and services.